Location: Township of South Roscoe
(37.9570°N, 100.1180°W)
Time: 07:07:24
(UTC+00:00)

PRISM - Pass Details

Date: 30 June 2022
Orbit: 554 x 578 km, 98.2° (Epoch: 12 August)

Event Time Altitude Azimuth Distance (km) Brightness Sun altitude
Rises 10:38:17 0° 34° (NE) 2,742 ? -7.9°
Reaches altitude 10° 10:41:16 10° 59° (ENE) 1,839 ? -7.4°
Maximum altitude 10:43:31 15° 94° (E) 1,556 ? -7.0°
Drops below altitude 10° 10:45:46 10° 128° (SE) 1,831 ? -6.7°
Sets 10:48:43 0° 153° (SSE) 2,720 ? -6.2°
